Find Globalstar M039

NORAD ID: 25961 Int'l Des: 1999-062 Owner: GLOBT Country: US Constellation: globalstar operational
LEOCIRCULAR

Live-Position

3D-Globus wird geladen...

Über Globalstar M039

Beschreibung wird geladen...

Nächste Überflüge

Passes for default location (London). Set your location on the main map for personalized predictions.

Höhenverlauf

Loading altitude history...

Zweizeiliger Elementsatz

1 25961U 99062A 26107.21469130 -.00000124 00000-0 -11022-3 0 9999
2 25961 51.9855 62.6869 0002524 311.5426 48.5224 12.62344525218617
Epoch: 17. Apr. 2026 • Age: 13 hours

Aktueller Status

Höhe 1430.0 km
Geschwindigkeit 7.15 km/s
Subsatellitenpunkt -52.12°S, 145.66°W
Startdatum 22. Nov. 1999
Alter 26.4 years
Typ communications

Technische Details

Klassifizierung Payload
Masse 450.00 kg
Trockenmasse 380.00 kg
Gesamtmasse 450.00 kg
Länge 1.50 m
Durchmesser 0.60 m
Spannweite 12.00 m
Form Box + 2 Pan
Hersteller LOR
Bus-Typ LS-400
Phasenstatus In Orbit
Besitzer/Staat GLOBT/US

Most Searched